Seattle Weather Center

Moon Phase Calendar



Online Cameras

 


      

Current Conditions in Seattle
9/25/2022 8:01:26 AM

54°F
Feels Like 53
Clear
Humidity
87%
Pressure
30.15"
Wind
5.8 mph (NE)
Dew Point
50°F
UV Index
0/10 (Low)
Visibility
6 mi

Hourly Forecast

Date & Time Sun, Sep 25
8:00 AM
Sun, Sep 25
9:00 AM
Sun, Sep 25
10:00 AM
Sun, Sep 25
11:00 AM
Sun, Sep 25
12:00 PM
Sun, Sep 25
1:00 PM
Sun, Sep 25
2:00 PM
Sun, Sep 25
3:00 PM
Sun, Sep 25
4:00 PM
Sun, Sep 25
5:00 PM
Sun, Sep 25
6:00 PM
Sun, Sep 25
7:00 PM
Sun, Sep 25
8:00 PM
Sun, Sep 25
9:00 PM
Sun, Sep 25
10:00 PM
Sun, Sep 25
11:00 PM
Mon, Sep 26
12:00 AM
Mon, Sep 26
1:00 AM
Mon, Sep 26
2:00 AM
Mon, Sep 26
3:00 AM
Mon, Sep 26
4:00 AM
Mon, Sep 26
5:00 AM
Mon, Sep 26
6:00 AM
Mon, Sep 26
7:00 AM
Mon, Sep 26
8:00 AM
Mon, Sep 26
9:00 AM
Mon, Sep 26
10:00 AM
Mon, Sep 26
11:00 AM
Mon, Sep 26
12:00 PM
Mon, Sep 26
1:00 PM
Mon, Sep 26
2:00 PM
Mon, Sep 26
3:00 PM
Mon, Sep 26
4:00 PM
Mon, Sep 26
5:00 PM
Mon, Sep 26
6:00 PM
Mon, Sep 26
7:00 PM
Mon, Sep 26
8:00 PM
Mon, Sep 26
9:00 PM
Mon, Sep 26
10:00 PM
Mon, Sep 26
11:00 PM
Tue, Sep 27
12:00 AM
Tue, Sep 27
1:00 AM
Tue, Sep 27
2:00 AM
Tue, Sep 27
3:00 AM
Tue, Sep 27
4:00 AM
Tue, Sep 27
5:00 AM
Tue, Sep 27
6:00 AM
Tue, Sep 27
7:00 AM
Condition
Clear

Clouds

Clouds

Clouds

Clouds

Clouds

Clouds

Clouds

Clouds

Clouds

Clouds

Clouds

Clouds

Clouds

Clouds

Clouds

Clear

Clear

Clear

Clear

Clear

Clear

Clouds

Clouds

Clouds

Clouds

Clouds

Clouds

Clouds

Clouds

Clouds

Clouds

Clouds

Clouds

Clear

Clear

Clear

Clear

Clear

Clear

Clear

Clear

Clear

Clear

Clear

Clear

Clear

Clear
Temperature 54°F55°F58°F63°F68°F74°F76°F77°F76°F73°F70°F64°F61°F59°F58°F57°F57°F56°F55°F55°F54°F54°F55°F54°F57°F61°F66°F71°F76°F79°F81°F82°F82°F80°F75°F68°F65°F63°F62°F61°F59°F59°F58°F57°F56°F55°F55°F54°F
Feels Like 53°F54°F57°F62°F67°F74°F75°F76°F75°F73°F69°F63°F60°F58°F57°F56°F56°F55°F55°F54°F54°F54°F54°F54°F56°F60°F65°F70°F75°F79°F80°F81°F81°F80°F75°F67°F64°F62°F61°F60°F59°F58°F57°F56°F55°F54°F54°F53°F
Cloudiness 0%15%30%44%51%77%85%89%91%92%94%71%49%37%29%25%0%0%0%0%0%9%100%91%92%94%95%96%96%70%47%36%29%24%4%4%3%2%2%2%5%5%5%6%6%6%5%3%
Visibility 6 mi6 mi6 mi6 mi6 mi6 mi6 mi6 mi6 mi6 mi6 mi6 mi6 mi6 mi6 mi6 mi6 mi6 mi6 mi6 mi6 mi6 mi6 mi6 mi6 mi6 mi6 mi6 mi6 mi6 mi6 mi6 mi6 mi6 mi6 mi6 mi6 mi6 mi6 mi6 mi6 mi6 mi6 mi6 mi6 mi6 mi6 mi6 mi
Precipitation 0%0%0%0%0%0%0%0%0%0%0%0%0%0%0%0%0%0%0%0%0%0%0%0%0%0%0%0%0%0%0%0%0%0%0%0%0%0%0%0%0%0%0%0%0%0%0%0%
Humidity 87%84%77%67%56%44%42%40%40%44%51%63%70%74%78%79%81%83%84%86%87%87%86%87%80%68%57%48%41%36%33%31%32%35%43%53%60%64%67%69%72%74%76%78%80%82%83%84%
Dew Point 50°F50°F51°F51°F52°F51°F51°F51°F50°F50°F51°F51°F51°F51°F51°F51°F51°F51°F51°F51°F51°F50°F50°F51°F51°F51°F51°F51°F51°F50°F49°F49°F49°F49°F51°F50°F50°F51°F51°F50°F50°F50°F50°F50°F50°F50°F50°F50°F
Pressure 30.15"30.15"30.15"30.15"30.12"30.12"30.09"30.06"30.03"30.03"30.03"30.03"30.03"30.03"30.03"30.03"30.03"30"30"30"30"30"30"30"30"30"30"29.97"29.97"29.94"29.94"29.91"29.88"29.88"29.88"29.88"29.88"29.91"29.91"29.91"29.91"29.91"29.91"29.88"29.88"29.88"29.88"29.88"
Wind Speed 3.1 mph3.8 mph5 mph5.5 mph5.5 mph5.6 mph5.8 mph6.1 mph7 mph7.4 mph6 mph4.9 mph4.6 mph4.2 mph3.8 mph3.6 mph3.6 mph3.6 mph3.4 mph3.1 mph2.8 mph2.8 mph2.7 mph2.2 mph1.3 mph1 mph1.5 mph2.2 mph2.6 mph2.4 mph2.6 mph2.5 mph2.5 mph2.8 mph3.4 mph4.4 mph4 mph3.3 mph2.7 mph1.9 mph0.9 mph0.3 mph0.2 mph0.7 mph0.4 mph0.4 mph0.5 mph0.2 mph
Wind
Direction
14°
NNE
14°
NNE

N
355°
N
354°
N
351°
N
345°
NNW
343°
NNW
343°
NNW
346°
NNW
349°
N
359°
N
12°
NNE
15°
NNE
15°
NNE
17°
NNE
13°
NNE

N

N
11°
N
17°
NNE
14°
NNE

N

N
19°
NNE
357°
N
346°
NNW
332°
NNW
337°
NNW
333°
NNW
316°
NW
308°
NW
306°
NW
324°
NW
354°
N

N

N

N

N

N

N
56°
NE
214°
SW
211°
SSW
237°
WSW
32°
NNE
334°
NNW
157°
SSE

Daily Forecast

Date High Low Precip. Humidity
Today
Sep 25

Clouds
77 °F
54 °F
0%
44%
Monday
Sep 26

Clouds
82 °F
54 °F
0%
36%
Tuesday
Sep 27

Clear
84 °F
55 °F
0%
32%
Wednesday
Sep 28

Rain
68 °F
55 °F
100%
69%
Thursday
Sep 29

Rain
63 °F
55 °F
100%
89%
Friday
Sep 30

Clouds
69 °F
51 °F
0%
65%
Saturday
Oct 1

Rain
78 °F
52 °F
22%
40%
Sunday
Oct 2

Rain
68 °F
52 °F
36%
60%
Monday
Oct 3

Clouds
69 °F
50 °F
0%
57%
Tuesday
Oct 4

Rain
62 °F
51 °F
98%
79%
Wednesday
Oct 5

Clouds
65 °F
49 °F
0%
72%
Thursday
Oct 6

Clouds
63 °F
48 °F
10%
59%
Friday
Oct 7

Clouds
67 °F
46 °F
0%
52%
Saturday
Oct 8

Clear
70 °F
48 °F
0%
42%
Sunday
Oct 9

Clear
75 °F
51 °F
0%
35%
Monday
Oct 10

Clear
79 °F
53 °F
0%
29%

Temperature 8-14 Day Outlook



Precipitation 8-14 Day Outlook




Quick Links
Seattle News
Seattle Photos
Seattle Videos




About Us
Contact Us
Site Map
Search Site
Advertise With Us
   
Seattle.USCoast.info
THE SEATTLE WEBSITE

Copyright 2022, Coastal Town
Privacy    |    Legal